Regional Weather Roundup
Issued by NWS Jackson, KY

Home | Current Version | Previous Version | Text Only | Print | Product List | Glossary Off
Versions: 1 2 3 4 5 6 7 8 9 10 11 12 13 14 15 16 17 18 19 20 21 22 23 24 25 26 27 28

000
ASUS43 KJKL 231010
RWRJKL

EAST KENTUCKY HOURLY WEATHER ROUNDUP
NATIONAL WEATHER SERVICE JACKSON KY
600 AM EDT SUN APR 23 2017

NOTE: "FAIR" INDICATES FEW OR NO CLOUDS BELOW 12,000 FEET WITH
NO SIGNIFICANT WEATHER AND/OR OBSTRUCTIONS TO VISIBILITY.

* THESE REPORTS ARE NOT UNDER NWS QUALITY CONTROL AND MAY NOT
  REPORT WEATHER SUCH AS PRECIPITATION AND FOG.

KYZ079-080-083-085-087-088-110-112-115-119-120-231100
...EASTERN KENTUCKY...

CITY           SKY/WX    TMP DP  RH WIND       PRES   REMARKS
JACKSON        CLOUDY    46  43  89 VRB5      29.92F
LONDON         CLOUDY    47  44  90 NE8       29.89F
SOMERSET*      CLOUDY    46  45  93 E7        29.90S
MONTICELLO*    LGT RAIN  48  47  96 N9        29.88F
WILLIAMSBURG*  CLOUDY    48  48 100 NE5       29.87F
MIDDLESBORO*   LGT RAIN  51  51  98 CALM      29.88F
HARLAN APT*    CLOUDY    50  46  87 CALM      29.91R
PIKE CO APT*   CLOUDY    46  46 100 N3        29.94S
BIG SANDY APT* CLOUDY    47  46  97 NE3       29.95S
MOREHEAD APT*  MOSUNNY   46  37  71 NE14      29.98R
ASHLAND*       CLEAR     43  37  81 NE5       29.97F
$$

KYZ035-036-041-042-044-050-067-078-099-231100
...CENTRAL KENTUCKY...

CITY           SKY/WX    TMP DP  RH WIND       PRES   REMARKS
MT STERLING*   CLEAR     41  39  93 E8        29.97F
FLEMING/MASON* CLEAR     42  36  79 NE9       30.00S
DANVILLE*      CLOUDY    46  43  87 NE10G17   29.91F
LEXINGTON      CLEAR     43  38  82 NE13      29.94F
FRANKFORT      CLEAR     46  36  68 NE9G20    29.94F
LOUISVILLE     PTCLDY    47  38  71 NE8       29.96F
LEBANON*       PTSUNNY   48  41  76 NE6G18    29.91S
GLASGOW*       LGT RAIN  48  48 100 NE10      29.87F
BOWLING GREEN  CLOUDY    49  47  93 NE8       29.88F
$$

KYZ091>093-OHZ055-061-077-WVZ005-015-034-035-042-231100
...SOUTHERN OHIO/WEST VIRGINIA...

CITY           SKY/WX    TMP DP  RH WIND       PRES   REMARKS
COVINGTON      CLOUDY    44  35  70 NE15      30.01F
COLUMBUS       CLEAR     39  34  82 N7        30.07S WCI  34
DAYTON         CLEAR     35  31  85 NE8       30.07F WCI  29
WILMINGTON     CLEAR     39  36  89 NE10      30.04S WCI  32
HUNTINGTON     CLOUDY    45  40  82 NE9       29.97F
CHARLESTON     CLOUDY    46  42  86 NE8       29.98F
PINEVILLE*     CLOUDY    51  49  93 MISG      29.99F
BECKLEY        CLOUDY    46  43  89 E9        29.97F
BLUEFIELD      CLOUDY    44  43  96 E9        29.98S
LOGAN CO APT*  CLOUDY    46  46 100 NE8       29.94F
$$

VAZ002-007-008-TNZ017-027-036-066-071-231100
...SOUTHWEST VIRGINIA/EAST TENNESSEE...

CITY           SKY/WX    TMP DP  RH WIND       PRES   REMARKS
WISE*          FOG       46  46 100 NE5       29.92S VSB<1/4
JONESVILLE*    CLOUDY    52  50  93 NE3       29.90S
ABINGDON*      CLOUDY    57  55  94 E13       29.89F
BRISTOL        CLOUDY    55  54  96 CALM      29.86F
MORRISTOWN*    CLOUDY    55  55 100 E7        29.83F FOG
SEVIERVILLE*   CLOUDY    55  55 100 CALM      29.82S
LAFOLLETTE*    CLOUDY    52  50  93 CALM      29.87F
OAK RIDGE      LGT RAIN  54  52  93 E6        29.82F
CROSSVILLE     HVY RAIN  49  48  97 N7        29.82R FOG
NASHVILLE      DRIZZLE   51  49  92 N15       29.82F FOG
$$

...KEY TO REMARKS...
VSB - VISIBILITY IN MILES
WCI - WIND CHILL INDEX
HX  - HEAT INDEX

$$




USA.gov is the U.S. government's official web portal to all federal, state and local government web resources and services.